TimeAST,TemperatureF,Dew PointF,Humidity,Sea Level PressureIn,VisibilityMPH,Wind Direction,Wind SpeedMPH,Gust SpeedMPH,PrecipitationIn,Events,Conditions,WindDirDegrees,DateUTC
1:00 AM,78.8,73.4,83,29.89,-9999.0,North,-9999.0,-,N/A,,Unknown,0,2011-10-24 05:00:00
2:00 AM,78,73,80,,6,Calm,Calm,,,,Clear,,2011-10-24 06:00:00
2:00 AM,78.8,73.4,83,29.89,-9999.0,North,-9999.0,-,N/A,,Unknown,0,2011-10-24 06:00:00
3:00 AM,78.8,73.4,83,29.86,-9999.0,Calm,Calm,-,N/A,,Unknown,0,2011-10-24 07:00:00
4:00 AM,77.0,73.4,89,29.86,-9999.0,North,-9999.0,-,N/A,,Unknown,0,2011-10-24 08:00:00
6:00 AM,77.0,73.4,89,29.89,-9999.0,North,-9999.0,-,N/A,,Unknown,0,2011-10-24 10:00:00
8:00 AM,84.2,78.8,84,29.92,6.2,Calm,Calm,-,N/A,,Scattered Clouds,0,2011-10-24 12:00:00
10:00 AM,86.0,73.4,66,29.95,6.2,ENE,5.8,-,N/A,,Scattered Clouds,60,2011-10-24 14:00:00
11:00 AM,86,72,54,29.96,25,,3.5,,,,Partly Cloudy,,2011-10-24 15:00:00
11:00 AM,86.0,73.4,66,29.95,6.2,NNE,4.6,-,N/A,,Scattered Clouds,20,2011-10-24 15:00:00
12:00 PM,86.0,75.2,70,29.92,6.2,North,8.1,-,N/A,,Mostly Cloudy,10,2011-10-24 16:00:00
1:00 PM,84.2,75.2,74,29.89,6.2,ENE,4.6,-,N/A,,Scattered Clouds,70,2011-10-24 17:00:00
2:00 PM,86,72,54,,6,Calm,Calm,,,,Clear,,2011-10-24 18:00:00
2:00 PM,86.0,71.6,62,29.86,6.2,North,-9999.0,-,N/A,,Scattered Clouds,0,2011-10-24 18:00:00
3:00 PM,84.2,73.4,70,29.83,6.2,NE,5.8,-,N/A,,Scattered Clouds,50,2011-10-24 19:00:00
4:00 PM,80.6,73.4,79,29.83,6.2,ENE,3.5,-,N/A,Rain,Light Rain,70,2011-10-24 20:00:00
5:00 PM,,72,,29.87,9,East,4.6,,,Rain,Light Rain Showers,80,2011-10-24 21:00:00
7:00 PM,77.0,75.2,94,29.80,6.2,Calm,Calm,-,N/A,Rain,Rain,0,2011-10-24 23:00:00
8:00 PM,78,71,74,29.81,9,North,10.4,,,,Overcast,10,2011-10-25 00:00:00
8:00 PM,77.0,75.2,94,29.83,6.2,North,9.2,-,N/A,,Scattered Clouds,10,2011-10-25 00:00:00
9:00 PM,78.8,75.2,89,29.89,6.2,North,-9999.0,-,N/A,,Scattered Clouds,0,2011-10-25 01:00:00
10:00 PM,78.8,73.4,83,29.86,6.2,Calm,Calm,-,N/A,,Scattered Clouds,0,2011-10-25 02:00:00
11:00 PM,78.8,75.2,89,29.86,-9999.0,North,-9999.0,-,N/A,,Unknown,0,2011-10-25 03:00:00